Notices

What's New in latest Release from April 7th, 2021:

- Updated Glossary, including Speed of Maximum Gust, and Total Hourly Precipitation

- Updated national and regional climate services offices contacts and prices information

- Addition of station inventory lists for 1981-2010, 1971-2000, and 1961-1990 Normals.

If you haven't already, please take our survey and provide feedback about our website: https://eccc.sondage-survey.ca/f/LanguageSelection.aspx?s=442ca660-fcf1-47c0-95a9-59707d6fd709

Hourly Data Report for November 09, 2019

QUALICUM BEACH AIRPORT
BRITISH COLUMBIA
Current Station Operator: ECCC - MSC

49°20'14.000" N
124°23'38.000" W
58.20 m
1026562
71766
VOQ

Download Data

Hourly Data (November 2019)
Hourly Data Report for November 9, 2019
TIME
LST
Temp Definition
°C
Dew Point Definition
°C
Rel Hum Definition
%
Precip. Amount Definition
mm

Wind Dir Definition
10's deg

Wind Spd Definition
km/h
Visibility Definition
km
Stn Press Definition
kPa
Hmdx Definition


Wind Chill Definition


Weather Definition


00:00 7.8 7.3 97 0.2 0 1   101.45     LegendNANA
01:00 7.7 7.3 97 0.0 14 2   101.49     LegendNANA
02:00 8.0 7.6 97 0.0 11 3   101.50     LegendNANA
03:00 8.4 7.9 97 0.0 11 9   101.48     LegendNANA
04:00 8.4 7.8 96 0.0 12 8   101.42     LegendNANA
05:00 8.2 7.6 96 0.0 13 6   101.43     LegendNANA
06:00 8.1 7.6 96 0.0 25 3   101.46     LegendNANA
07:00 7.9 7.5 97 0.0   0   101.47     LegendNANA
08:00 8.3 7.8 97 0.0 14 5   101.51     LegendNANA
09:00 8.7 8.1 96 0.0 12 7   101.51     LegendNANA
10:00 9.1 8.5 96 0.0 12 8   101.55     LegendNANA
11:00 9.4 8.7 95 0.0 12 9   101.55     LegendNANA
12:00 9.9 9.1 95 0.0 11 7   101.54     LegendNANA
13:00 9.7 9.0 95 0.0 11 7   101.50     LegendNANA
14:00 9.7 9.0 96 0.0 12 11   101.50     LegendNANA
15:00 9.7 9.0 95 0.0 11 8   101.49     LegendNANA
16:00 9.6 8.9 96 0.0 12 8   101.52     LegendNANA
17:00 9.5 8.9 96 0.0 12 7   101.51     LegendNANA
18:00 9.5 9.0 97 0.0 13 7   101.54     LegendNANA
19:00 9.4 9.0 97 0.0 12 4   101.57     LegendNANA
20:00 9.4 9.0 97 0.0 12 2   101.59     LegendNANA
21:00 9.4 8.9 97 0.0   0   101.64     LegendNANA
22:00 9.3 8.9 97 0.0   0   101.66     LegendNANA
23:00 9.4 9.0 97 0.0 0 1   101.66     LegendNANA

Notes on Data Quality.

Legend

  • E = Estimated
  • M = Missing
  • NA = Not Available*
  • [empty] = Indicates an unobserved value
Date modified: